254  
ASUS41 KGYX 202010  
RWRGYX  
WEATHER ROUNDUP FOR MAINE AND NEW HAMPSHIRE  
NATIONAL WEATHER SERVICE GRAY ME  
400 PM EDT FRI APR 20 2018  
 
MEZ002-005-006-010-012-015-018-020-021-024-026-027-029-202100-  
MAINE  
 
CITY SKY/WX TMP DP RH WIND PRES REMARKS
 
PORTLAND FAIR 50 30 46 NW21G33 30.01R  
SANFORD CLOUDY 49 27 42 NW12G29 30.04R  
BAR HARBOR PTSUNNY 47 32 56 N9G18 29.93R  
WISCASSET CLOUDY 49 29 46 VRB5 29.99R  
ROCKLAND CLOUDY 49 28 44 NW12G20 29.95R  
FRYEBURG CLOUDY 44 30 57 W8G20 30.05R  
LEWISTONAUBURN CLOUDY 48 29 47 NW17G23 30.00R  
AUGUSTA CLOUDY 47 29 49 NW12G23 29.98R  
WATERVILLE CLOUDY 47 28 47 N10 29.94R  
BANGOR PTSUNNY 50 31 48 NW15 29.94R  
GREENVILLE N/A 39 27 62 NW15 29.91R  
MILLINOCKET CLOUDY 45 32 60 N8 29.94R  
HOULTON FAIR 45 27 49 N14 29.90R  
PRESQUE ISLE PTSUNNY 41 32 70 N8 29.93R  
FRENCHVILLE PTSUNNY 44 25 47 NW23 29.90R  
CARIBOU LGT RAIN 38 32 79 N6 29.91R  

 
 
NHZ002-005-008-009-011-012-014-202100-  
NEW HAMPSHIRE  
 
CITY SKY/WX TMP DP RH WIND PRES REMARKS
 
PORTSMOUTH MOSUNNY 52 26 37 NW23G32 30.03R  
ROCHESTER FAIR 49 29 46 NW20G29 30.04R  
NASHUA PTSUNNY 50 27 40 NW16G32 30.09R  
MANCHESTER FAIR 51 25 36 NW20G29 30.07R  
CONCORD CLOUDY 47 27 45 NW18G26 30.09R  
LACONIA CLOUDY 42 27 55 NW15G22 30.09R  
PLYMOUTH CLOUDY 39 29 67 W12G18 30.12R  
BERLIN CLOUDY 42 32 67 NW8G26 30.04S  
WHITEFIELD CLOUDY 37 29 72 NW13G22 30.09R  
JAFFREY CLOUDY 44 28 53 NW10G18 30.09R  
KEENE CLOUDY 46 26 45 N14G21 30.13R  
LEBANON CLOUDY 42 26 53 NW13G21 30.14R  
MT WASHINGTON SNOWSHWR 16 16 100 NW61G72 N/A VSB 0 WCI -10  

 
 
VTZ005-007-008-202100-  
VERMONT  
 
CITY SKY/WX TMP DP RH WIND PRES REMARKS
 
ST JOHNSBURY N/A 39 29 67 MISG 30.11R  
MONTPELIER CLOUDY 34 27 75 NW7 30.18R  
BURLINGTON CLOUDY 41 27 57 W12 30.19R  

 
 
MAZ007-012-024-CTZ003-RIZ002-NYZ038-NYZ072-202100-  
SOUTHERN NEW ENGLAND AND NY  
 
CITY SKY/WX TMP DP RH WIND PRES REMARKS
 
BOSTON PTSUNNY 52 27 38 N16G29 30.05R  
WORCESTER PTSUNNY 47 25 42 NW21G29 30.07R  
NANTUCKET PTSUNNY 49 30 48 N12 30.06R  
PROVIDENCE FAIR 52 26 36 N16G23 30.07R  
HARTFORD PTSUNNY 51 25 36 NW15G26 30.13R  
ALBANY PTSUNNY 44 23 43 W23G31 30.22R  
NEW YORK CITY FAIR 50 25 37 NW20G25 30.19S  

 
 
ANZ081-ANZ082-ANZ150-NHZ014-MEZ023>029-202100-  
COASTAL MARINE OBSERVATIONS  
 
STATION/POSITION TIME TEMP WIND PRES WAVE
 
AIR SEA DIR/SP/G HT/PER  
(UTC) (F) (DEG/KT/KT) (MB) (FT/S)  
MOUNT DESERT ROC 2000 41 320/ 7/ 8 1014.2R  
MATINICUS ROCK 2000 43 250/ 6/ 7 1014.1R  
ISLE OF SHOALS 2000 47 310/ 24/ 27 1016.5R  
JEFFREYS LEDGE 1936 41 N/A 3/10  
CASHES LEDGE BUO 1950 44 41 1014.7R 3/ 9  

 
   
............KEY...........
 
 
WCI - WIND CHILL  
TC - TEMPERATURE IN CELSIUS  
VSB - VISIBILITY
IN MILES  
HX - HEAT INDEX  
FAIR- INDICATES FEW OR NO CLOUDS BELOW 12,000 FT, WITH NO  
SIGNIFICANT WEATHER AND/OR S TO VISIBILITY.  
 
 
 
CLICK HERE TO GO TO PREVIOUS BULLETINS.

The Nexlab ME Page
The Nexlab NH Page Main Text Page